Regional Weather Roundup
Issued by NWS Nashville, TN

Home | Current Version | Previous Version | Text Only | Print | Product List | Glossary On
Versions: 1 2 3 4 5 6 7 8 9 10 11 12 13 14 15 16 17 18 19 20 21 22 23 24 25 26 27
000
ASUS44 KOHX 191810
RWROHX
MIDDLE TENNESSEE HOURLY WEATHER ROUNDUP
NATIONAL WEATHER SERVICE NASHVILLE TN
100 PM CDT THU OCT 19 2017

NOTE: "FAIR" INDICATES FEW OR NO CLOUDS BELOW 12,000 FEET WITH
NO SIGNIFICANT WEATHER AND/OR OBSTRUCTIONS TO VISIBILITY.

* THESE REPORTS ARE NOT UNDER NWS QUALITY CONTROL AND MAY NOT
  REPORT WEATHER SUCH AS PRECIPITATION AND FOG.


TNZ005>011-023>034-057-059-062>066-078-080-191900
...NORTHERN MIDDLE TENNESSEE...

CITY           SKY/WX    TMP DP  RH WIND       PRES   REMARKS
CLARKSVILLE      N/A     71  47  42 SW6       30.27F
CROSSVILLE       N/A     67  42  40 CALM      30.32F
GALLATIN       SUNNY     72  46  40 VRB3      30.31F
DICKSON          N/A     71  46  40 SW7       30.27F
LEBANON          N/A     71  45  39 CALM      30.28F
NASHVILLE        N/A     74  44  34 CALM      30.29F
PORTLAND       SUNNY     70  48  46 VRB3      30.28F HAZE
SMYRNA           N/A     73  47  39 SE3       30.30F
SPARTA         SUNNY     68  43  40 CALM      30.30F
SPRINGFIELD    SUNNY     70  50  49 VRB6      30.26F
WEST NASHVILLE SUNNY     72  48  43 CALM      30.26F
$$
TNZ056-058-060-061-075>077-079-093>097-191900
...SOUTHERN MIDDLE TENNESSEE...

CITY           SKY/WX    TMP DP  RH WIND       PRES   REMARKS
COLUMBIA       SUNNY     72  45  37 CALM      30.27F
FAYETTEVILLE   SUNNY     70  45  40 CALM      30.29F
MURFREESBORO     N/A     71  43  36 CALM      30.28F
PULASKI        SUNNY     72  46  40 VRB3      30.28F
SHELBYVILLE    SUNNY     70  46  43 CALM      30.29F
TULLAHOMA      SUNNY     70  37  30 CALM      30.31F
WINCHESTER     SUNNY     72  43  35 NW3         N/A
$$


...KEY TO REMARKS...
VSB - VISIBILITY IN MILES
WCI - WIND CHILL INDEX
HX  - HEAT INDEX





USA.gov is the U.S. government's official web portal to all federal, state and local government web resources and services.